TimeCDT,TemperatureF,Dew PointF,Humidity,Sea Level PressureIn,VisibilityMPH,Wind Direction,Wind SpeedMPH,Gust SpeedMPH,PrecipitationIn,Events,Conditions,WindDirDegrees,DateUTC
12:53 AM,48.9,45.0,86,30.28,10.0,Calm,Calm,-,N/A,,Clear,0,2013-04-25 05:53:00
1:53 AM,50.0,45.0,83,30.27,10.0,NE,4.6,-,N/A,,Scattered Clouds,40,2013-04-25 06:53:00
2:53 AM,48.0,44.1,86,30.29,10.0,Calm,Calm,-,N/A,,Scattered Clouds,0,2013-04-25 07:53:00
3:53 AM,48.9,45.0,86,30.30,10.0,Calm,Calm,-,N/A,,Mostly Cloudy,0,2013-04-25 08:53:00
4:53 AM,48.9,44.1,83,30.30,10.0,Calm,Calm,-,N/A,,Clear,0,2013-04-25 09:53:00
5:53 AM,48.9,44.1,83,30.31,10.0,NE,3.5,-,N/A,,Clear,50,2013-04-25 10:53:00
6:53 AM,48.0,44.1,86,30.32,10.0,ENE,3.5,-,N/A,,Scattered Clouds,60,2013-04-25 11:53:00
7:53 AM,50.0,44.1,80,30.35,10.0,East,3.5,-,N/A,,Clear,80,2013-04-25 12:53:00
8:53 AM,53.1,43.0,69,30.36,10.0,East,5.8,-,N/A,,Clear,80,2013-04-25 13:53:00
9:53 AM,57.9,42.1,56,30.37,10.0,ENE,5.8,-,N/A,,Clear,70,2013-04-25 14:53:00
10:53 AM,61.0,41.0,48,30.37,10.0,East,11.5,-,N/A,,Clear,100,2013-04-25 15:53:00
11:53 AM,63.0,42.1,46,30.36,10.0,East,8.1,-,N/A,,Clear,100,2013-04-25 16:53:00
12:53 PM,66.0,41.0,40,30.34,10.0,NNE,5.8,-,N/A,,Clear,30,2013-04-25 17:53:00
1:53 PM,69.1,41.0,36,30.32,10.0,Variable,5.8,-,N/A,,Clear,0,2013-04-25 18:53:00
2:53 PM,70.0,39.9,33,30.30,10.0,Variable,6.9,-,N/A,,Clear,0,2013-04-25 19:53:00
3:53 PM,71.1,39.9,32,30.27,10.0,East,8.1,-,N/A,,Clear,100,2013-04-25 20:53:00
4:53 PM,71.1,39.0,31,30.25,10.0,East,10.4,-,N/A,,Clear,100,2013-04-25 21:53:00
5:53 PM,71.1,39.9,32,30.25,10.0,ESE,4.6,-,N/A,,Clear,110,2013-04-25 22:53:00
6:53 PM,69.1,39.9,35,30.25,10.0,ESE,6.9,-,N/A,,Clear,110,2013-04-25 23:53:00
7:53 PM,64.9,39.9,40,30.24,10.0,ESE,8.1,-,N/A,,Clear,110,2013-04-26 00:53:00
8:53 PM,62.1,37.0,39,30.24,10.0,East,6.9,-,N/A,,Clear,100,2013-04-26 01:53:00
9:53 PM,60.1,39.0,46,30.27,10.0,East,5.8,-,N/A,,Clear,100,2013-04-26 02:53:00
10:53 PM,59.0,39.0,48,30.28,10.0,East,3.5,-,N/A,,Clear,90,2013-04-26 03:53:00
11:53 PM,55.0,41.0,59,30.26,10.0,East,4.6,-,N/A,,Clear,100,2013-04-26 04:53:00